SCP
0 0 -0 0 -0 0 0 -0 -0 0 0 -0 -0 0 0 0 0 0 -0 0 0 0 0 0 -0 -0 -0 -0 -0 -0 -0 -0 -0 -0 0 0 0 0 0 1 1 1 0 0 1 1 1 1 1
0 -0 0 0 0 0 0 -0 -0 0 0 -0 -0 0 0 0 0 -0 -0 0 0 0 0 0 -0 -0 -0 -0 -0 -0 -0 -0 0 0 0 0 0 0 1 1 1 1 1 1 0 0 0 0 0
0 0 -0 0 0 0 0 0 0 0 0 -0 -0 0 0 0 0 -0 0 -0 0 0 -0 0 -0 -0 -0 -0 -0 -0 -0 0 0 0 0 0 0 0 0 0 1 1 1 1 1 1 1 1 1
0 0 0 0 0 0 0 0 0 0 0 0 0 0 -0 -0 0 -0 -0 -0 -0 -0 -0 0 -0 -0 -0 -0 -0 -0 -0 -0 -0 -0 -0 -0 0 0 0 0 0 0 0 0 1 1 1 1 1
-0 -0 0 0 0 0 0 0 0 0 -0 0 0 0 0 -0 -0 -0 -0 0 0 -0 -0 -0 0 0 0 0 0 0 0 -0 -0 -0 -0 -0 -0 -0 0 0 0 0 0 0 0 0 0 1 1
-0 -0 -0 0 0 0 -0 0 0 -0 0 0 -0 0 0 -0 -0 -0 0 -0 -0 0 -0 -0 0 0 0 0 0 0 0 0 -0 -0 -0 -0 0 0 0 0 0 0 0 0 0 0 0 0 0
-0 -0 0 0 0 0 0 0 0 0 0 0 -0 0 0 -0 -0 -0 -0 -0 -0 0 0 -0 0 0 0 0 0 0 -0 0 0 -0 -0 0 0 0 0 0 0 0 0 0 0 0 0 0 0
-0 0 -0 0 0 0 0 0 0 0 0 -0 -0 -0 -0 -0 -0 -0 0 0 0 0 0 0 0 0 0 0 0 0 0 0 -0 -0 0 0 0 0 0 0 0 0 0 0 0 0 0 0 0
0 0 0 0 0 0 0 0 0 0 0 0 0 -0 -0 -0 -0 -0 0 0 0 0 0 0 0 0 0 0 0 0 0 0 0 0 0 0 0 0 0 0 0 0 0 0 0 0 0 0 0
0 -0 0 0 0 0 0 0 -0 0 -0 0 -0 -0 -0 -0 -0 -0 0 0 0 0 0 0 0 0 0 0 0 0 0 0 0 0 0 0 0 0 0 0 0 0 0 0 0 0 0 0 0
0 0 -0 0 -0 -0 0 0 0 -0 -0 -0 -0 -0 -0 -0 -0 -0 0 0 0 0 0 0 0 0 0 0 0 0 0 0 0 0 0 0 0 0 0 0 0 0 0 0 0 0 0 0 0
-0 -0 0 0 -0 -0 -0 0 0 0 0 -0 -0 -0 -0 -0 -0 0 0 0 0 0 0 0 0 0 0 0 0 0 0 0 0 0 0 0 0 0 0 0 0 0 0 0 0 0 0 0 0
-0 0 0 0 -0 -0 -0 0 0 -0 -0 -0 -0 -0 -0 -0 0 0 0 0 0 0 0 0 0 0 0 0 0 0 0 0 0 0 0 -0 -0 0 0 0 0 0 0 0 0 0 0 0 0
0 0 0 -0 -0 -0 0 0 0 0 -0 -0 -0 -0 -0 -0 0 0 0 0 0 0 0 0 0 0 0 0 0 0 0 0 0 0 -0 -0 -0 0 0 0 0 0 0 0 0 0 0 0 0
0 0 0 0 0 0 0 0 0 0 -0 -0 -0 -0 0 0 -0 -0 0 0 0 0 0 0 0 0 0 0 0 0 0 0 0 0 -0 0 0 0 0 0 0 0 0 0 0 0 0 0 0
0 0 0 0 0 0 -0 -0 0 -0 -0 -0 -0 -0 0 0 0 0 0 0 0 0 0 0 0 0 0 0 0 0 0 0 0 0 0 0 0 0 0 0 0 0 0 0 0 0 0 0 0
0 0 0 0 0 0 0 0 -0 -0 0 0 -0 -0 0 0 0 0 0 0 0 0 0 0 0 0 0 0 0 0 0 0 0 0 0 0 0 0 0 0 0 0 0 0 0 0 0 0 0
0 0 0 0 0 0 0 -0 -0 -0 -0 -0 -0 -0 0 0 0 0 0 0 0 0 0 0 0 0 0 0 0 0 0 0 0 0 0 0 0 0 0 0 0 0 0 0 0 0 0 0 0
0 0 0 0 0 -0 -0 -0 0 -0 0 0 0 0 0 0 0 0 0 0 0 0 0 0 0 0 0 0 0 0 0 0 0 0 0 0 0 0 0 0 0 0 0 0 0 0 0 0 0
0 0 0 0 0 0 0 0 0 0 -0 -0 -0 -0 -0 0 0 0 0 0 0 0 0 0 0 0 0 0 0 0 0 0 0 0 0 0 0 0 0 0 0 0 0 0 0 0 0 0 0
0 0 0 0 0 0 0 0 0 0 0 0 0 0 0 0 -0 0 0 0 0 0 0 0 0 0 0 0 0 0 0 0 0 0 0 0 0 0 0 0 0 0 0 0 0 0 0 0 0
0 0 0 0 0 0 0 0 0 0 0 0 0 0 0 0 0 0 0 0 0 0 0 0 0 0 0 0 0 0 0 0 0 0 0 0 0 0 0 0 0 0 0 0 0 0 0 0 0
0 0 0 0 0 0 0 0 0 0 0 0 0 0 0 0 0 0 0 0 0 0 0 0 0 0 0 0 0 0 0 0 0 0 0 0 0 0 0 0 0 0 0 0 0 0 0 0 0
0 0 0 0 0 0 0 0 0 0 0 0 0 0 0 0 0 -0 0 0 0 0 0 0 0 0 0 0 0 0 0 0 0 0 0 0 0 0 0 0 0 0 0 0 0 0 0 0 0
0 0 0 0 0 0 0 0 0 0 0 0 0 0 0 0 -0 -0 0 0 0 0 0 0 0 0 0 0 0 0 0 0 0 0 0 0 0 0 0 0 0 0 0 0 0 0 0 0 0
0 0 0 0 0 0 0 0 0 0 0 0 0 0 0 0 0 0 0 0 0 0 0 0 0 0 0 0 0 0 0 0 0 0 0 0 0 0 0 0 0 0 0 0 0 0 0 0 0
0 0 0 0 0 0 0 0 0 0 0 0 0 0 0 0 0 0 0 0 0 0 0 0 0 0 0 0 0 0 0 0 0 0 0 0 0 0 0 0 0 0 0 0 0 0 0 0 0
0 0 0 0 0 0 0 0 0 0 0 0 0 0 0 0 0 0 0 0 0 0 0 0 0 0 0 0 0 0 0 0 0 0 0 0 0 0 0 0 0 0 0 0 0 0 0 0 0
0 0 0 0 0 0 0 0 0 0 0 0 0 0 0 0 0 0 0 0 0 0 0 0 0 0 0 0 0 0 0 0 0 0 0 0 0 0 0 0 0 0 0 0 0 0 0 0 0
0 0 0 0 0 0 0 0 0 0 0 0 0 0 0 0 0 0 0 0 0 0 0 0 0 0 0 0 0 0 0 0 0 0 0 0 0 0 0 0 0 0 0 0 0 0 0 0 0
Wind_Speed_500mb
13 11 4 3 7 11 3 4 5 1 8 22 26 18 15 14 5 8 23 14 8 11 16 18 19 21 23 25 24 23 21 19 17 17 16 15 15 14 13 13 13 16 18 21 24 26 29 32 34
9 3 3 2 9 7 3 3 7 10 36 45 47 39 29 9 24 35 28 17 15 15 19 21 22 22 22 21 21 20 19 19 19 18 18 16 12 12 14 15 17 16 18 22 23 25 25 26 29
8 3 4 7 6 7 7 6 6 31 40 7 9 18 11 8 36 28 23 24 23 25 26 27 25 24 23 20 18 16 14 12 11 12 13 14 12 9 6 8 12 15 18 21 27 31 32 32 32
10 6 4 8 5 4 8 10 12 8 20 25 28 13 19 16 26 29 29 26 29 31 31 32 33 33 31 29 27 24 19 16 14 12 10 12 13 12 7 4 7 13 19 24 27 29 31 35 35
5 2 8 8 9 9 6 5 20 8 1 23 15 11 15 29 39 36 36 34 35 41 41 38 34 30 26 23 23 23 22 19 16 11 6 5 4 9 11 12 14 17 19 22 26 29 34 34 38
0 5 10 2 7 4 10 22 22 8 13 23 36 26 11 43 41 42 42 41 42 43 41 35 30 30 29 25 24 23 22 21 19 16 15 15 15 14 15 22 23 20 22 23 26 26 31 37 40
10 7 9 10 5 9 10 29 21 19 24 17 41 9 27 57 45 47 50 46 43 39 33 30 26 21 16 21 23 23 23 25 24 22 22 23 25 25 25 25 26 22 24 27 32 37 40 34 39
4 8 8 8 9 7 13 20 19 30 7 42 44 13 18 61 53 53 53 49 42 34 27 20 12 7 7 9 17 20 24 28 31 28 22 19 23 31 33 35 37 36 37 39 40 40 41 41 42
2 8 2 10 13 6 20 10 29 22 37 19 21 23 50 63 58 59 57 52 41 33 23 16 13 9 4 10 14 20 25 31 35 30 22 18 18 22 30 41 43 46 45 48 48 47 44 42 42
9 6 14 16 18 12 30 30 39 15 39 0 33 48 59 70 66 64 63 53 40 32 26 25 15 9 5 9 16 24 31 37 38 37 34 29 23 22 22 27 35 44 47 45 44 45 45 45 46
15 12 15 15 46 47 32 30 20 41 9 37 66 62 63 75 69 64 55 46 37 32 25 20 14 5 4 13 22 28 33 39 38 36 37 35 30 25 27 26 27 31 36 42 46 49 50 49 52
9 14 25 24 38 48 36 34 17 39 17 57 64 71 69 74 75 66 57 49 43 33 20 15 11 7 9 14 21 31 36 39 39 40 40 37 32 34 34 28 26 27 29 32 37 42 47 50 51
8 4 3 47 59 47 43 24 22 38 24 53 59 67 70 73 67 60 58 49 41 36 31 23 18 14 12 18 26 30 34 37 39 41 41 40 43 42 32 25 24 27 30 31 31 32 35 39 44
11 16 16 41 42 45 19 17 30 27 52 58 67 67 65 72 70 67 61 54 47 41 31 27 21 12 13 22 26 29 30 33 37 40 41 46 46 36 28 24 22 23 24 25 27 30 32 31 35
28 16 14 13 18 11 22 4 10 48 57 64 67 65 63 63 64 67 62 55 47 39 29 21 15 13 19 22 23 24 26 30 34 38 41 46 36 26 22 21 21 22 25 26 26 27 27 31 31
10 12 11 5 12 18 11 11 10 59 59 50 56 51 61 65 69 67 62 56 48 40 29 22 15 16 21 22 21 23 25 27 32 33 41 34 24 19 21 23 25 25 27 29 29 31 32 36 40
12 11 8 3 14 8 12 7 18 60 49 50 54 55 64 66 76 81 72 62 55 47 36 21 14 19 21 20 20 21 23 25 27 32 36 22 22 25 26 27 28 29 29 31 31 30 35 40 41
12 12 4 12 17 15 13 11 19 54 49 56 58 62 67 75 81 77 72 64 59 48 30 15 18 20 20 22 23 21 20 22 22 30 22 19 22 25 26 26 28 32 32 33 33 30 30 39 45
13 13 15 11 14 11 20 14 26 53 45 50 62 68 70 77 79 79 73 70 63 45 31 23 18 13 16 22 24 21 18 18 20 21 17 13 19 22 24 28 29 31 32 38 39 35 32 38 48
8 12 9 8 6 9 3 9 18 39 54 69 71 62 75 75 79 78 74 65 55 45 22 15 11 12 16 21 24 20 17 15 16 10 10 11 15 19 23 26 29 29 30 33 36 36 39 39 42
8 12 9 10 7 5 6 16 9 13 34 56 58 64 76 89 90 83 75 65 48 31 18 12 11 10 14 14 18 17 12 16 11 5 6 10 13 19 24 26 26 30 32 36 36 33 35 39 36
6 16 9 7 8 10 7 10 9 5 19 31 47 60 80 91 74 87 80 67 51 37 24 12 10 8 8 10 11 15 17 14 7 4 7 12 16 17 25 26 27 28 32 35 36 30 30 33 32
18 15 15 12 10 8 1 5 13 8 4 14 43 67 88 74 86 90 86 71 54 38 25 15 10 6 3 5 9 13 13 8 3 6 8 14 14 19 23 26 27 29 34 34 33 29 25 29 25
4 2 13 11 8 1 12 12 13 11 16 23 28 66 72 81 90 89 85 68 54 40 28 19 11 8 5 2 6 9 7 2 2 5 7 10 16 19 21 26 30 33 40 32 30 29 24 26 26
10 12 7 7 3 13 8 8 19 15 17 16 41 45 61 72 80 87 84 73 60 45 33 23 17 12 3 4 6 7 7 5 4 5 8 12 17 18 20 22 27 32 41 37 30 30 26 26 27
13 20 13 15 9 13 10 13 14 7 6 21 28 46 60 78 71 78 83 76 62 50 37 25 21 14 2 6 7 6 6 5 3 6 11 14 14 17 20 24 29 32 38 42 27 24 24 25 24
9 8 12 8 4 5 8 12 17 10 9 12 25 38 58 58 69 80 84 77 64 54 41 28 24 14 4 5 8 9 8 6 4 7 10 13 13 16 19 23 26 32 44 38 23 27 26 22 22
15 14 4 4 3 9 8 9 12 11 22 18 29 48 57 59 69 77 83 76 64 51 38 30 27 9 6 8 7 9 10 9 3 4 6 9 9 16 21 24 27 35 39 34 26 23 23 26 26
3 4 9 10 10 11 6 12 16 21 20 32 31 53 64 66 71 74 80 74 61 47 45 36 28 18 14 10 7 10 14 11 6 4 4 5 12 19 23 25 27 35 37 33 28 24 24 27 28
12 14 14 10 13 3 7 13 10 14 15 21 30 41 57 62 62 69 79 71 60 55 51 42 33 24 17 10 11 13 15 13 10 3 4 8 12 20 25 24 24 29 37 39 30 26 26 31 33
Wind_Direction_500mb
105 72 4 331 51 68 38 346 346 88 77 74 92 94 92 47 81 155 145 143 88 126 117 109 97 91 89 90 91 93 97 102 108 109 112 120 140 149 155 157 169 184 196 204 209 216 223 231 239
123 122 82 47 77 81 268 306 52 82 123 103 78 76 60 75 107 133 146 143 127 130 115 103 97 94 91 90 90 91 93 97 102 105 108 116 131 159 178 182 184 190 199 210 220 226 233 237 238
125 189 162 101 108 139 141 111 143 134 137 138 95 79 69 96 130 132 146 134 139 125 111 105 100 93 88 84 81 79 79 83 93 106 107 109 113 115 154 204 223 229 232 233 232 229 228 231 232
168 174 93 79 115 194 131 141 159 147 101 94 111 73 83 150 128 137 137 140 137 120 112 107 102 94 86 79 74 73 71 65 61 72 118 147 159 153 155 197 239 240 235 239 249 251 247 247 246
176 354 47 38 348 118 227 146 165 157 44 127 124 113 102 141 140 132 134 139 129 120 115 108 94 80 72 64 59 54 48 40 33 26 355 299 244 212 184 195 212 234 247 258 250 248 250 247 250
117 69 57 139 282 215 117 192 152 142 170 129 119 107 117 154 148 138 133 129 127 124 120 111 96 76 60 57 53 43 32 20 4 341 322 304 293 284 276 266 248 248 257 260 260 260 260 256 250
123 90 174 159 254 334 147 160 133 145 148 132 135 101 142 161 150 142 134 133 133 132 125 111 89 72 65 57 42 30 20 4 347 328 308 287 276 275 275 274 273 274 275 275 274 271 266 264 253
86 98 121 193 170 246 125 153 178 164 176 147 149 151 167 167 154 147 139 139 140 133 122 113 105 97 75 49 27 15 5 354 345 343 337 312 286 273 271 270 276 282 282 283 282 280 279 275 272
76 54 207 186 152 203 149 129 168 174 150 160 201 185 164 166 161 152 147 148 149 141 135 152 159 166 90 16 7 352 349 349 350 356 360 339 313 293 275 269 272 274 277 278 278 277 275 272 268
136 122 220 198 174 168 168 167 157 141 162 109 133 151 159 173 167 160 159 159 158 155 163 181 176 181 46 18 341 334 341 346 352 356 357 353 343 327 305 283 275 273 275 274 273 273 273 271 267
181 200 205 228 183 163 161 160 162 145 199 177 152 157 166 174 172 168 168 169 164 164 167 164 177 137 45 322 324 328 338 341 346 350 351 348 340 332 324 305 290 279 277 276 277 277 277 275 272
186 210 170 143 145 147 162 155 145 169 214 177 173 169 168 174 178 182 177 169 171 165 157 168 172 218 264 295 317 326 332 335 338 344 344 340 338 331 326 317 306 299 294 292 290 289 288 288 287
179 160 17 152 154 156 155 178 171 208 194 170 160 171 172 177 181 180 175 172 172 170 167 179 204 243 295 310 315 320 325 328 334 338 339 341 338 336 334 325 314 308 308 308 305 300 296 294 295
180 91 100 142 156 163 169 165 149 207 168 170 173 176 176 182 180 176 176 174 178 180 191 204 209 244 288 296 309 313 320 325 331 336 342 343 339 340 344 341 335 332 331 329 327 325 321 317 312
137 88 80 67 129 152 134 110 232 174 175 173 182 185 192 192 188 185 184 181 188 200 204 217 242 281 296 301 305 312 316 324 328 337 342 339 341 349 356 359 356 353 351 348 344 338 338 336 335
66 56 94 261 128 168 158 240 182 175 174 181 189 190 195 198 199 197 191 191 203 218 203 218 243 281 294 302 306 309 312 319 330 338 339 342 355 15 25 22 19 16 9 2 356 348 349 345 343
10 139 134 134 217 149 177 224 180 180 182 176 186 191 199 193 196 191 192 204 208 205 205 214 263 291 289 289 289 296 302 316 329 339 343 5 26 40 40 35 28 17 8 2 1 2 353 347 346
176 123 215 181 211 202 210 207 168 178 182 169 171 183 182 184 183 185 192 196 199 198 209 235 250 265 286 280 281 285 297 312 329 342 356 21 40 35 29 26 20 13 7 3 2 360 358 352 345
138 135 176 229 187 173 202 188 186 180 183 169 177 182 176 179 181 188 191 192 193 195 205 244 238 251 274 270 266 271 286 303 331 354 17 24 28 27 27 22 9 6 4 5 359 357 351 354 351
147 163 215 259 155 213 87 250 199 188 195 189 187 180 182 182 189 191 193 194 195 188 202 215 240 255 269 257 263 262 276 299 334 355 8 32 30 23 15 7 4 3 1 360 359 356 355 358 359
201 179 220 217 35 78 49 302 163 217 211 201 198 189 188 195 196 195 194 196 193 192 206 217 244 256 274 256 250 254 278 311 326 332 350 4 17 14 6 1 4 3 0 1 357 354 351 351 5
228 210 203 180 103 237 139 261 287 212 221 204 192 184 191 201 192 195 196 197 195 202 207 222 251 261 282 272 269 273 283 282 277 317 352 356 358 7 9 7 358 355 356 357 358 354 350 351 0
234 139 185 178 182 128 189 105 267 46 153 180 189 190 202 193 199 202 201 197 197 201 200 216 250 257 264 223 257 255 251 250 289 344 340 343 11 6 2 6 2 359 354 351 352 352 351 351 350
270 66 48 53 101 193 224 156 275 194 196 202 197 201 195 196 206 205 199 193 196 195 203 214 231 231 232 259 272 257 235 239 341 6 357 5 4 7 10 11 10 8 2 356 357 352 344 346 349
91 67 324 331 355 231 176 115 243 236 207 201 201 190 189 194 197 196 195 192 194 199 205 215 216 233 209 290 280 250 246 236 318 357 14 11 7 14 8 2 3 3 7 0 353 356 350 344 342
182 165 172 216 210 250 139 215 249 251 149 207 208 198 201 205 192 191 197 197 198 203 207 216 210 225 267 307 304 270 234 243 318 8 8 4 0 352 351 353 352 348 349 349 346 347 351 351 343
203 176 196 142 31 80 232 284 306 183 229 179 205 195 203 192 193 200 202 201 202 204 207 212 212 206 249 278 293 269 225 231 286 352 346 347 348 344 348 352 354 352 345 349 356 354 351 347 344
159 165 97 7 152 227 275 280 242 226 220 207 196 206 199 195 190 200 204 201 204 206 203 205 213 215 238 244 280 267 241 236 261 352 325 323 334 343 347 350 357 357 2 8 357 354 1 2 352
91 215 54 126 141 175 185 257 222 221 198 201 210 206 197 190 192 201 202 203 205 203 204 211 207 216 233 228 285 287 254 233 207 267 336 333 333 334 337 344 352 1 6 6 6 1 353 354 353
166 202 160 151 252 183 166 263 258 215 229 165 187 204 200 198 198 196 203 202 201 205 206 210 208 217 221 240 274 284 248 219 205 244 269 321 336 338 338 338 341 358 9 5 359 3 360 354 349
Wind_Speed_850mb
13 11 4 3 7 11 3 4 5 1 8 22 26 18 15 14 5 8 23 14 8 11 16 18 19 21 23 25 24 23 21 19 17 17 16 15 15 14 13 13 13 16 18 21 24 26 29 32 34
9 3 3 2 9 7 3 3 7 10 36 45 47 39 29 9 24 35 28 17 15 15 19 21 22 22 22 21 21 20 19 19 19 18 18 16 12 12 14 15 17 16 18 22 23 25 25 26 29
8 3 4 7 6 7 7 6 6 31 40 7 9 18 11 8 36 28 23 24 23 25 26 27 25 24 23 20 18 16 14 12 11 12 13 14 12 9 6 8 12 15 18 21 27 31 32 32 32
10 6 4 8 5 4 8 10 12 8 20 25 28 13 19 16 26 29 29 26 29 31 31 32 33 33 31 29 27 24 19 16 14 12 10 12 13 12 7 4 7 13 19 24 27 29 31 35 35
5 2 8 8 9 9 6 5 20 8 1 23 15 11 15 29 39 36 36 34 35 41 41 38 34 30 26 23 23 23 22 19 16 11 6 5 4 9 11 12 14 17 19 22 26 29 34 34 38
0 5 10 2 7 4 10 22 22 8 13 23 36 26 11 43 41 42 42 41 42 43 41 35 30 30 29 25 24 23 22 21 19 16 15 15 15 14 15 22 23 20 22 23 26 26 31 37 40
10 7 9 10 5 9 10 29 21 19 24 17 41 9 27 57 45 47 50 46 43 39 33 30 26 21 16 21 23 23 23 25 24 22 22 23 25 25 25 25 26 22 24 27 32 37 40 34 39
4 8 8 8 9 7 13 20 19 30 7 42 44 13 18 61 53 53 53 49 42 34 27 20 12 7 7 9 17 20 24 28 31 28 22 19 23 31 33 35 37 36 37 39 40 40 41 41 42
2 8 2 10 13 6 20 10 29 22 37 19 21 23 50 63 58 59 57 52 41 33 23 16 13 9 4 10 14 20 25 31 35 30 22 18 18 22 30 41 43 46 45 48 48 47 44 42 42
9 6 14 16 18 12 30 30 39 15 39 0 33 48 59 70 66 64 63 53 40 32 26 25 15 9 5 9 16 24 31 37 38 37 34 29 23 22 22 27 35 44 47 45 44 45 45 45 46
15 12 15 15 46 47 32 30 20 41 9 37 66 62 63 75 69 64 55 46 37 32 25 20 14 5 4 13 22 28 33 39 38 36 37 35 30 25 27 26 27 31 36 42 46 49 50 49 52
9 14 25 24 38 48 36 34 17 39 17 57 64 71 69 74 75 66 57 49 43 33 20 15 11 7 9 14 21 31 36 39 39 40 40 37 32 34 34 28 26 27 29 32 37 42 47 50 51
8 4 3 47 59 47 43 24 22 38 24 53 59 67 70 73 67 60 58 49 41 36 31 23 18 14 12 18 26 30 34 37 39 41 41 40 43 42 32 25 24 27 30 31 31 32 35 39 44
11 16 16 41 42 45 19 17 30 27 52 58 67 67 65 72 70 67 61 54 47 41 31 27 21 12 13 22 26 29 30 33 37 40 41 46 46 36 28 24 22 23 24 25 27 30 32 31 35
28 16 14 13 18 11 22 4 10 48 57 64 67 65 63 63 64 67 62 55 47 39 29 21 15 13 19 22 23 24 26 30 34 38 41 46 36 26 22 21 21 22 25 26 26 27 27 31 31
10 12 11 5 12 18 11 11 10 59 59 50 56 51 61 65 69 67 62 56 48 40 29 22 15 16 21 22 21 23 25 27 32 33 41 34 24 19 21 23 25 25 27 29 29 31 32 36 40
12 11 8 3 14 8 12 7 18 60 49 50 54 55 64 66 76 81 72 62 55 47 36 21 14 19 21 20 20 21 23 25 27 32 36 22 22 25 26 27 28 29 29 31 31 30 35 40 41
12 12 4 12 17 15 13 11 19 54 49 56 58 62 67 75 81 77 72 64 59 48 30 15 18 20 20 22 23 21 20 22 22 30 22 19 22 25 26 26 28 32 32 33 33 30 30 39 45
13 13 15 11 14 11 20 14 26 53 45 50 62 68 70 77 79 79 73 70 63 45 31 23 18 13 16 22 24 21 18 18 20 21 17 13 19 22 24 28 29 31 32 38 39 35 32 38 48
8 12 9 8 6 9 3 9 18 39 54 69 71 62 75 75 79 78 74 65 55 45 22 15 11 12 16 21 24 20 17 15 16 10 10 11 15 19 23 26 29 29 30 33 36 36 39 39 42
8 12 9 10 7 5 6 16 9 13 34 56 58 64 76 89 90 83 75 65 48 31 18 12 11 10 14 14 18 17 12 16 11 5 6 10 13 19 24 26 26 30 32 36 36 33 35 39 36
6 16 9 7 8 10 7 10 9 5 19 31 47 60 80 91 74 87 80 67 51 37 24 12 10 8 8 10 11 15 17 14 7 4 7 12 16 17 25 26 27 28 32 35 36 30 30 33 32
18 15 15 12 10 8 1 5 13 8 4 14 43 67 88 74 86 90 86 71 54 38 25 15 10 6 3 5 9 13 13 8 3 6 8 14 14 19 23 26 27 29 34 34 33 29 25 29 25
4 2 13 11 8 1 12 12 13 11 16 23 28 66 72 81 90 89 85 68 54 40 28 19 11 8 5 2 6 9 7 2 2 5 7 10 16 19 21 26 30 33 40 32 30 29 24 26 26
10 12 7 7 3 13 8 8 19 15 17 16 41 45 61 72 80 87 84 73 60 45 33 23 17 12 3 4 6 7 7 5 4 5 8 12 17 18 20 22 27 32 41 37 30 30 26 26 27
13 20 13 15 9 13 10 13 14 7 6 21 28 46 60 78 71 78 83 76 62 50 37 25 21 14 2 6 7 6 6 5 3 6 11 14 14 17 20 24 29 32 38 42 27 24 24 25 24
9 8 12 8 4 5 8 12 17 10 9 12 25 38 58 58 69 80 84 77 64 54 41 28 24 14 4 5 8 9 8 6 4 7 10 13 13 16 19 23 26 32 44 38 23 27 26 22 22
15 14 4 4 3 9 8 9 12 11 22 18 29 48 57 59 69 77 83 76 64 51 38 30 27 9 6 8 7 9 10 9 3 4 6 9 9 16 21 24 27 35 39 34 26 23 23 26 26
3 4 9 10 10 11 6 12 16 21 20 32 31 53 64 66 71 74 80 74 61 47 45 36 28 18 14 10 7 10 14 11 6 4 4 5 12 19 23 25 27 35 37 33 28 24 24 27 28
12 14 14 10 13 3 7 13 10 14 15 21 30 41 57 62 62 69 79 71 60 55 51 42 33 24 17 10 11 13 15 13 10 3 4 8 12 20 25 24 24 29 37 39 30 26 26 31 33
Wind_Direction_850mb
105 72 4 331 51 68 38 346 346 88 77 74 92 94 92 47 81 155 145 143 88 126 117 109 97 91 89 90 91 93 97 102 108 109 112 120 140 149 155 157 169 184 196 204 209 216 223 231 239
123 122 82 47 77 81 268 306 52 82 123 103 78 76 60 75 107 133 146 143 127 130 115 103 97 94 91 90 90 91 93 97 102 105 108 116 131 159 178 182 184 190 199 210 220 226 233 237 238
125 189 162 101 108 139 141 111 143 134 137 138 95 79 69 96 130 132 146 134 139 125 111 105 100 93 88 84 81 79 79 83 93 106 107 109 113 115 154 204 223 229 232 233 232 229 228 231 232
168 174 93 79 115 194 131 141 159 147 101 94 111 73 83 150 128 137 137 140 137 120 112 107 102 94 86 79 74 73 71 65 61 72 118 147 159 153 155 197 239 240 235 239 249 251 247 247 246
176 354 47 38 348 118 227 146 165 157 44 127 124 113 102 141 140 132 134 139 129 120 115 108 94 80 72 64 59 54 48 40 33 26 355 299 244 212 184 195 212 234 247 258 250 248 250 247 250
117 69 57 139 282 215 117 192 152 142 170 129 119 107 117 154 148 138 133 129 127 124 120 111 96 76 60 57 53 43 32 20 4 341 322 304 293 284 276 266 248 248 257 260 260 260 260 256 250
123 90 174 159 254 334 147 160 133 145 148 132 135 101 142 161 150 142 134 133 133 132 125 111 89 72 65 57 42 30 20 4 347 328 308 287 276 275 275 274 273 274 275 275 274 271 266 264 253
86 98 121 193 170 246 125 153 178 164 176 147 149 151 167 167 154 147 139 139 140 133 122 113 105 97 75 49 27 15 5 354 345 343 337 312 286 273 271 270 276 282 282 283 282 280 279 275 272
76 54 207 186 152 203 149 129 168 174 150 160 201 185 164 166 161 152 147 148 149 141 135 152 159 166 90 16 7 352 349 349 350 356 360 339 313 293 275 269 272 274 277 278 278 277 275 272 268
136 122 220 198 174 168 168 167 157 141 162 109 133 151 159 173 167 160 159 159 158 155 163 181 176 181 46 18 341 334 341 346 352 356 357 353 343 327 305 283 275 273 275 274 273 273 273 271 267
181 200 205 228 183 163 161 160 162 145 199 177 152 157 166 174 172 168 168 169 164 164 167 164 177 137 45 322 324 328 338 341 346 350 351 348 340 332 324 305 290 279 277 276 277 277 277 275 272
186 210 170 143 145 147 162 155 145 169 214 177 173 169 168 174 178 182 177 169 171 165 157 168 172 218 264 295 317 326 332 335 338 344 344 340 338 331 326 317 306 299 294 292 290 289 288 288 287
179 160 17 152 154 156 155 178 171 208 194 170 160 171 172 177 181 180 175 172 172 170 167 179 204 243 295 310 315 320 325 328 334 338 339 341 338 336 334 325 314 308 308 308 305 300 296 294 295
180 91 100 142 156 163 169 165 149 207 168 170 173 176 176 182 180 176 176 174 178 180 191 204 209 244 288 296 309 313 320 325 331 336 342 343 339 340 344 341 335 332 331 329 327 325 321 317 312
137 88 80 67 129 152 134 110 232 174 175 173 182 185 192 192 188 185 184 181 188 200 204 217 242 281 296 301 305 312 316 324 328 337 342 339 341 349 356 359 356 353 351 348 344 338 338 336 335
66 56 94 261 128 168 158 240 182 175 174 181 189 190 195 198 199 197 191 191 203 218 203 218 243 281 294 302 306 309 312 319 330 338 339 342 355 15 25 22 19 16 9 2 356 348 349 345 343
10 139 134 134 217 149 177 224 180 180 182 176 186 191 199 193 196 191 192 204 208 205 205 214 263 291 289 289 289 296 302 316 329 339 343 5 26 40 40 35 28 17 8 2 1 2 353 347 346
176 123 215 181 211 202 210 207 168 178 182 169 171 183 182 184 183 185 192 196 199 198 209 235 250 265 286 280 281 285 297 312 329 342 356 21 40 35 29 26 20 13 7 3 2 360 358 352 345
138 135 176 229 187 173 202 188 186 180 183 169 177 182 176 179 181 188 191 192 193 195 205 244 238 251 274 270 266 271 286 303 331 354 17 24 28 27 27 22 9 6 4 5 359 357 351 354 351
147 163 215 259 155 213 87 250 199 188 195 189 187 180 182 182 189 191 193 194 195 188 202 215 240 255 269 257 263 262 276 299 334 355 8 32 30 23 15 7 4 3 1 360 359 356 355 358 359
201 179 220 217 35 78 49 302 163 217 211 201 198 189 188 195 196 195 194 196 193 192 206 217 244 256 274 256 250 254 278 311 326 332 350 4 17 14 6 1 4 3 0 1 357 354 351 351 5
228 210 203 180 103 237 139 261 287 212 221 204 192 184 191 201 192 195 196 197 195 202 207 222 251 261 282 272 269 273 283 282 277 317 352 356 358 7 9 7 358 355 356 357 358 354 350 351 0
234 139 185 178 182 128 189 105 267 46 153 180 189 190 202 193 199 202 201 197 197 201 200 216 250 257 264 223 257 255 251 250 289 344 340 343 11 6 2 6 2 359 354 351 352 352 351 351 350
270 66 48 53 101 193 224 156 275 194 196 202 197 201 195 196 206 205 199 193 196 195 203 214 231 231 232 259 272 257 235 239 341 6 357 5 4 7 10 11 10 8 2 356 357 352 344 346 349
91 67 324 331 355 231 176 115 243 236 207 201 201 190 189 194 197 196 195 192 194 199 205 215 216 233 209 290 280 250 246 236 318 357 14 11 7 14 8 2 3 3 7 0 353 356 350 344 342
182 165 172 216 210 250 139 215 249 251 149 207 208 198 201 205 192 191 197 197 198 203 207 216 210 225 267 307 304 270 234 243 318 8 8 4 0 352 351 353 352 348 349 349 346 347 351 351 343
203 176 196 142 31 80 232 284 306 183 229 179 205 195 203 192 193 200 202 201 202 204 207 212 212 206 249 278 293 269 225 231 286 352 346 347 348 344 348 352 354 352 345 349 356 354 351 347 344
159 165 97 7 152 227 275 280 242 226 220 207 196 206 199 195 190 200 204 201 204 206 203 205 213 215 238 244 280 267 241 236 261 352 325 323 334 343 347 350 357 357 2 8 357 354 1 2 352
91 215 54 126 141 175 185 257 222 221 198 201 210 206 197 190 192 201 202 203 205 203 204 211 207 216 233 228 285 287 254 233 207 267 336 333 333 334 337 344 352 1 6 6 6 1 353 354 353
166 202 160 151 252 183 166 263 258 215 229 165 187 204 200 198 198 196 203 202 201 205 206 210 208 217 221 240 274 284 248 219 205 244 269 321 336 338 338 338 341 358 9 5 359 3 360 354 349